Chillicothe, MO

6:02 AM CDT on April 28, 2017 (GMT -0500)
Chillicothe

Weather History for KCDJ - January, 2013

Change the Weather History Date:

Friday, January 11, 2013

  Actual Average (KIRK) Record (KIRK)
Temperature  
Mean Temperature 52 °F -  
Max Temperature 57 °F 29 °F 62 °F (2004)
Min Temperature 46 °F 13 °F -17 °F (1918)
Degree Days  
Heating Degree Days 14    
Growing Degree Days 2 (Base 50)    
Moisture  
Dew Point 46 °F    
Average Humidity 79    
Maximum Humidity 100    
Minimum Humidity 62    
Precipitation  
Precipitation 0.00 in - - ()
Sea Level Pressure  
Sea Level Pressure 29.67 in    
Wind  
Wind Speed 9 mph (South)    
Max Wind Speed 14 mph    
Max Gust Speed 22 mph    
Averages and records for this station are not official NWS values.
T = Trace of Precipitation, MM = Missing Value Source: NWS Daily Summary

Daily Weather History Graph

Daily Weather History Graph

Search for Another Location

Airport or City:

Trip Planner

Search our weather history database for the weather conditions in past years. The results will help you decide how hot, cold, wet, or windy it might be!

Date:

Astronomy

Jan. 11, 2013 Rise Set
Actual Time 7:35 AM CST 5:10 PM CST
Civil Twilight 7:05 AM CST 5:39 PM CST
Nautical Twilight 6:31 AM CST 6:13 PM CST
Astronomical Twilight 5:59 AM CST 6:45 PM CST
Moon 7:08 AM CST (1/11) 5:28 PM CST (1/11)
Length of Visible Light 10h 34m
Length of Day
9h 35m
Waning Crescent, 0% of the Moon is Illuminated
Jan 11
Waning Crescent
Jan 11
New
Jan 18
First Quarter
Jan 26
Full
Feb 3
Last Quarter

Hourly Weather History & Observations

Time (CST) Temp. Windchill Dew Point Humidity Pressure Visibility Wind Dir Wind Speed Gust Speed Precip Events Conditions
1:52 AM 46.9 °F - 46.9 °F 100% 29.76 in - South 5.8 mph - N/A   Unknown
2:52 AM 46.0 °F 43.9 °F 46.0 °F 100% 29.77 in - SSE 4.6 mph - N/A   Unknown
3:52 AM 48.0 °F - 48.0 °F 100% 29.75 in - South 6.9 mph - N/A   Unknown
4:52 AM 48.0 °F - 48.0 °F 100% 29.75 in - South 8.1 mph - N/A   Unknown
5:52 AM 48.9 °F - 48.9 °F 100% 29.74 in - South 12.7 mph 18.4 mph N/A   Unknown
6:52 AM 48.9 °F - 48.9 °F 100% 29.74 in - South 12.7 mph - N/A   Unknown
7:52 AM 48.9 °F - 46.9 °F 93% 29.74 in - SSE 9.2 mph - N/A   Unknown
8:52 AM 50.0 °F - 46.9 °F 89% 29.72 in - SSE 11.5 mph 19.6 mph N/A   Unknown
9:52 AM 50.0 °F - 46.9 °F 89% 29.71 in - South 13.8 mph 19.6 mph N/A   Unknown
11:52 AM 53.1 °F - 45.0 °F 74% 29.63 in - South 13.8 mph 21.9 mph N/A   Unknown
12:52 PM 54.0 °F - 45.0 °F 72% 29.62 in - South 11.5 mph - N/A   Unknown
1:52 PM 55.0 °F - 45.0 °F 69% 29.60 in - South 12.7 mph - N/A   Unknown
2:52 PM 57.0 °F - 46.0 °F 67% 29.60 in - South 9.2 mph 18.4 mph N/A   Unknown
3:52 PM 55.9 °F - 45.0 °F 67% 29.60 in - South 6.9 mph - N/A   Unknown
4:52 PM 55.9 °F - 45.0 °F 67% 29.59 in - SSE 10.4 mph - N/A   Unknown
5:52 PM 57.9 °F - 45.0 °F 62% 29.60 in - South 10.4 mph - N/A   Unknown
6:52 PM 57.0 °F - 45.0 °F 64% 29.62 in - South 9.2 mph - N/A   Unknown
7:52 PM 57.0 °F - 45.0 °F 64% 29.62 in - South 11.5 mph - N/A   Unknown
8:52 PM 57.0 °F - 44.1 °F 62% 29.62 in - South 12.7 mph 21.9 mph N/A   Unknown
9:52 PM 57.0 °F - 44.1 °F 62% 29.64 in - South 11.5 mph - N/A   Unknown
10:52 PM 55.0 °F - 44.1 °F 67% 29.66 in - South 9.2 mph - N/A   Unknown
11:52 PM 55.0 °F - 44.1 °F 67% 29.69 in - South 12.7 mph - N/A   Unknown